Lexington Weather

Lexington, Massachusetts, USA

70°F
8/17/2022 6:30pm 
  • Lexington Conditions: Overcast
  • Temperature: 70.0°F / 21.1°C 
  • Dew Point: 59.4°FIncreased 1.3°Fsince last hour.
  • Relative Humidity: 69%Increased 3.0% since last hour.
  • Wind: Calm, 10-min avg: Calm, gust: None
  • Barometer: 29.85 inFalling 0.02  inHg/hr Falling Slowly
  • Visibility: 10 miles
  • Rain Today: 0.00 in
  •   

Regional Weather Roundup
for Boston, MA

        
000
ASUS41 KBOX 131410
RWRBOX

REGIONAL WEATHER ROUNDUP
NATIONAL WEATHER SERVICE BOSTON/NORTON MA
1000 AM EDT SAT AUG 13 2022

NOTE:  "FAIR" INDICATES FEW OR NO CLOUDS BELOW 12,000 FEET WITH NO 
SIGNIFICANT WEATHER AND/OR OBSTRUCTIONS TO VISIBILITY.

MAZALL-131500-
EASTERN MASSACHUSETTS
  
CITY           SKY/WX    TMP DP  RH WIND       PRES   REMARKS
BOSTON         PTSUNNY   69  52  54 N9        30.09R                  
BEVERLY        MOSUNNY   67  52  58 N10       30.08S                  
LAWRENCE       SUNNY     70  52  52 N10       30.11S                  
BEDFORD        SUNNY     70  53  54 N10       30.08F                  
BLUE HILL      NOT AVBL                                               
NORWOOD        SUNNY     72  53  51 N8        30.09R                  
MARSHFIELD     PTSUNNY   66  55  68 VRB7G13   30.08S                  
PLYMOUTH       MOSUNNY   67  56  67 N9        30.09R                  
TAUNTON          N/A    N/A N/A N/A MISG      30.08R                  
NEW BEDFORD    SUNNY     70  56  61 N8        30.07R                  
$$

MAZALL-131500-
CAPE COD AND THE ISLANDS
  
CITY           SKY/WX    TMP DP  RH WIND       PRES   REMARKS
FALMOUTH       SUNNY     66  57  72 N12G21    30.07R                  
HYANNIS        CLOUDY    67  58  72 N12G21    30.05R                  
CHATHAM        CLOUDY    69  59  70 N9G17     30.06R                  
NANTUCKET      CLOUDY    72  64  76 N17       30.04R                  
MARTHAS VNYRD  MOSUNNY   70  61  73 N12       30.06R                  
$$
 
MAZALL-131500-
CENTRAL AND WESTERN MASSACHUSETTS
  
CITY           SKY/WX    TMP DP  RH WIND       PRES   REMARKS
WORCESTER      MOSUNNY   66  50  56 VRB5      30.11S                  
FITCHBURG      SUNNY     69  48  47 N8        30.11S                  
ORANGE         SUNNY     67  51  56 N6        30.13S                  
SPRINGFIELD    MOSUNNY   68  52  55 N10       30.09S                  
WESTFIELD      PTSUNNY   67  52  58 NE10      30.11S                  
NORTH ADAMS    SUNNY     65  53  65 VRB6      30.15S                  
PITTSFIELD     MOSUNNY   67  49  52 NE8       30.14S                  
$$
 
RIZALL-131500-
RHODE ISLAND
  
CITY           SKY/WX    TMP DP  RH WIND       PRES   REMARKS
PROVIDENCE     MOSUNNY   72  52  49 N10G20    30.09R                  
NEWPORT        SUNNY     69  55  60 N10G21    30.07S                  
BLOCK ISLAND   SUNNY     67  55  65 N10       30.09R                  
SMITHFIELD     SUNNY     70  52  52 NE9       30.10S                  
WESTERLY       SUNNY     71  53  52 N10       30.08R                  
$$
 
CTZALL-131500-
CONNECTICUT
  
CITY           SKY/WX    TMP DP  RH WIND       PRES   REMARKS
BRADLEY INTL   MOSUNNY   70  53  54 N8        30.11S                  
HARTFORD       MOSUNNY   70  52  52 VRB5      30.11S                  
BRIDGEPORT     MOSUNNY   72  50  45 N10       30.10S                  
DANBURY        MOSUNNY   71  50  47 NE13      30.13S                  
GROTON         SUNNY     74  53  48 N9        30.08R                  
NEW HAVEN      SUNNY     73  52  47 N15       30.10S                  
CHESTER        FAIR      72  52  49 N9        30.10S                  
MERIDEN        SUNNY     71  51  49 NE12      30.11S                  
WILLIMANTIC    SUNNY     71  51  49 N7        30.10R                  
OXFORD         SUNNY     68  51  54 N12       30.13S                  
$$

MEZ002-015-021-024-NHZ003-005-008-011-012-014-VTZ005-008-131500-
NORTHERN NEW ENGLAND
  
CITY           SKY/WX    TMP DP  RH WIND       PRES   REMARKS
PORTLAND ME    PTSUNNY   69  53  56 NE8       30.09R                  
BANGOR ME      PTSUNNY   68  57  68 N8        30.09S                  
CONCORD NH     SUNNY     68  54  60 NW6       30.11S                  
MANCHESTER NH  MOSUNNY   70  51  51 NE9       30.09F                  
NASHUA NH      MOSUNNY   68  54  60 VRB6      30.11S                  
PORTSMOUTH NH  PTSUNNY   67  50  54 N9        30.09R                  
JAFFREY NH     SUNNY     67  50  54 VRB5      30.13S                  
KEENE NH       SUNNY     65  54  67 CALM        N/A                   
BURLINGTON VT  MOSUNNY   67  55  65 N3        30.15F                  
MT. WASHINGTON FOG       39  39 100 N23         N/A  VSB 1/4 WCI  29  
$$

NYZ052-076-131500-
EASTERN NEW YORK
  
CITY           SKY/WX    TMP DP  RH WIND       PRES   REMARKS
ALBANY         MOSUNNY   68  53  58 NW6       30.16S                  
NEW YORK CITY  MOSUNNY   71  47  42 N13G20    30.10S                  
$$
 
ANZALL-131500-
MARINE OBSERVATIONS
  
STATION/POSITION TIME  TEMP    WIND        PRES    VSBY  WAVE
                       AIR SEA DIR/SP/G                  HT/PER
                 (UTC) (F)     (DEG/KT/KT) (MB)    (MI)  (FT/S)
BOSTON BUOY      NOT AVBL
BUZZARDS BAY     NOT AVBL
NANTUCKET SOUND  NOT AVBL
MASS BAY-STELLWA NOT AVBL
ISLE OF SHOALS   NOT AVBL
S OF BLOCK IS    NOT AVBL
$$

......................KEY.........................
  SKY/WX - SKY CONDITION/PRESENT WEATHER
  TMP    - TEMPERATURE IN FAHRENHEIT
  DWPT   - DEWPOINT IN FAHRENHEIT
  RH     - RELATIVE HUMIDITY IN PERCENT
  WIND   - DIRECTION AND SPEED IN MPH
  PRES   - MEAN SEA LEVEL PRESSURE IN INCHES OF HG
  WCI    - WIND CHILL INDEX
  VSB    - VISIBILITY IN MILES
  HX     - HEAT INDEX
  TC     - TEMPERATURE IN CELSIUS
  VRB    - VARIABLE WIND DIRECTION
  N/A    - NOT AVAILABLE
  
      

Other recent Regional Weather Roundups

Wed Aug 17, 6:10pm

Wed Aug 17, 5:10pm

Wed Aug 17, 4:10pm

Wed Aug 17, 3:10pm

Wed Aug 17, 2:10pm

Wed Aug 17, 1:10pm

Wed Aug 17, 12:10pm

Wed Aug 17, 11:10am

Wed Aug 17, 10:10am

Wed Aug 17, 9:10am

Wed Aug 17, 8:10am

Wed Aug 17, 7:10am

Wed Aug 17, 6:10am

Wed Aug 17, 5:10am

Wed Aug 17, 4:10am

Wed Aug 17, 3:10am

Wed Aug 17, 2:10am

Wed Aug 17, 1:10am

Wed Aug 17, 12:10am

Tue Aug 16, 11:10pm

Tue Aug 16, 10:10pm

Tue Aug 16, 9:10pm

Tue Aug 16, 8:10pm

Tue Aug 16, 7:10pm

Tue Aug 16, 6:10pm

Tue Aug 16, 5:10pm

Tue Aug 16, 4:10pm

Tue Aug 16, 3:10pm

Tue Aug 16, 2:10pm

Tue Aug 16, 1:10pm

Tue Aug 16, 12:10pm

Tue Aug 16, 11:10am

Tue Aug 16, 10:10am

Tue Aug 16, 9:10am

Tue Aug 16, 8:10am

Tue Aug 16, 7:10am

Tue Aug 16, 6:10am

Tue Aug 16, 5:10am

Tue Aug 16, 4:10am

Tue Aug 16, 3:10am

Tue Aug 16, 2:10am

Tue Aug 16, 1:10am

Tue Aug 16, 12:10am

Mon Aug 15, 11:10pm

Mon Aug 15, 10:10pm

Mon Aug 15, 9:10pm

Mon Aug 15, 8:10pm

Mon Aug 15, 7:10pm

Mon Aug 15, 6:10pm

Mon Aug 15, 5:10pm

Mon Aug 15, 4:10pm

Mon Aug 15, 3:10pm

Mon Aug 15, 2:10pm

Mon Aug 15, 1:10pm

Mon Aug 15, 12:10pm

Mon Aug 15, 11:10am

Mon Aug 15, 10:10am

Mon Aug 15, 9:10am

Mon Aug 15, 8:10am

Mon Aug 15, 7:10am

Mon Aug 15, 6:10am

Mon Aug 15, 5:10am

Mon Aug 15, 4:10am

Mon Aug 15, 3:10am

Mon Aug 15, 2:10am

Mon Aug 15, 1:10am

Mon Aug 15, 12:10am

Sun Aug 14, 11:10pm

Sun Aug 14, 10:10pm

Sun Aug 14, 9:10pm

Sun Aug 14, 8:10pm

Sun Aug 14, 7:10pm

Sun Aug 14, 6:10pm

Sun Aug 14, 5:10pm

Sun Aug 14, 4:10pm

Sun Aug 14, 3:10pm

Sun Aug 14, 2:10pm

Sun Aug 14, 1:10pm

Sun Aug 14, 12:10pm

Sun Aug 14, 11:10am

Sun Aug 14, 10:10am

Sun Aug 14, 9:10am

Sun Aug 14, 8:10am

Sun Aug 14, 7:10am

Sun Aug 14, 6:10am

Sun Aug 14, 5:10am

Sun Aug 14, 4:10am

Sun Aug 14, 3:10am

Sun Aug 14, 2:10am

Sun Aug 14, 1:10am

Sun Aug 14, 12:10am

Sat Aug 13, 11:10pm

Sat Aug 13, 10:10pm

Sat Aug 13, 9:10pm

Sat Aug 13, 8:10pm

Sat Aug 13, 7:10pm

Sat Aug 13, 6:10pm

Sat Aug 13, 5:10pm

Sat Aug 13, 4:10pm

Sat Aug 13, 3:10pm

Sat Aug 13, 2:10pm

Sat Aug 13, 1:10pm

Sat Aug 13, 12:10pm

Sat Aug 13, 11:10am

Sat Aug 13, 9:10am

Sat Aug 13, 8:10am

Sat Aug 13, 7:10am

Sat Aug 13, 6:10am

Sat Aug 13, 5:10am

Sat Aug 13, 4:10am

Sat Aug 13, 3:10am

Sat Aug 13, 2:10am

Sat Aug 13, 1:10am

Sat Aug 13, 12:10am

Fri Aug 12, 11:10pm

Fri Aug 12, 10:10pm

Fri Aug 12, 9:10pm

Fri Aug 12, 8:10pm

Fri Aug 12, 7:10pm

Fri Aug 12, 6:10pm

Fri Aug 12, 5:10pm

Fri Aug 12, 4:10pm

Fri Aug 12, 3:10pm

Fri Aug 12, 2:10pm

Fri Aug 12, 1:10pm

Fri Aug 12, 12:10pm

Fri Aug 12, 11:10am

Fri Aug 12, 10:10am

Fri Aug 12, 9:10am

Fri Aug 12, 8:10am

Fri Aug 12, 7:10am

Fri Aug 12, 6:10am

Fri Aug 12, 5:10am

Fri Aug 12, 4:10am

Fri Aug 12, 3:10am

Fri Aug 12, 2:10am

Fri Aug 12, 1:10am

Fri Aug 12, 12:10am

Thu Aug 11, 11:10pm

Thu Aug 11, 10:10pm

Thu Aug 11, 9:10pm

Thu Aug 11, 8:10pm

Thu Aug 11, 7:10pm

Thu Aug 11, 6:10pm

Thu Aug 11, 5:10pm

Thu Aug 11, 4:10pm

Thu Aug 11, 3:10pm

Thu Aug 11, 2:10pm

Thu Aug 11, 1:10pm

Thu Aug 11, 12:10pm

Thu Aug 11, 11:10am

Thu Aug 11, 10:10am

Thu Aug 11, 9:10am

Thu Aug 11, 8:10am

Thu Aug 11, 7:10am

Thu Aug 11, 6:10am

Thu Aug 11, 5:10am

Thu Aug 11, 4:10am

Thu Aug 11, 3:10am

Thu Aug 11, 2:10am

Thu Aug 11, 1:10am

Thu Aug 11, 12:10am

Wed Aug 10, 11:10pm

Wed Aug 10, 10:10pm

Wed Aug 10, 9:10pm

Wed Aug 10, 8:10pm

Wed Aug 10, 7:10pm

Meta data:

ID: a900a3dc-501e-4678-bac6-8217027120cb
Link: https://api.weather.gov/products/a900a3dc-501e-4678-bac6-8217027120cb